Time,TemperatureF,DewpointF,PressureIn,WindDirection,WindDirectionDegrees,WindSpeedMPH,WindSpeedGustMPH,Humidity,HourlyPrecipIn,Conditions,Clouds,dailyrainin,SoftwareType,DateUTC
2013-03-15 00:02:00,29.0,25.0,-100.00,East,95,10.0,12.0,84,-99.99,,,-99.99,,2013-03-15 06:02:00,
2013-03-15 00:12:00,29.0,25.0,-100.00,East,95,10.0,12.0,84,-99.99,,,-99.99,,2013-03-15 06:12:00,
2013-03-15 00:22:00,29.0,25.0,-100.00,East,85,10.0,12.0,84,-99.99,,,-99.99,,2013-03-15 06:22:00,
2013-03-15 00:32:00,29.0,25.0,-100.00,East,85,11.0,12.0,84,-99.99,,,-99.99,,2013-03-15 06:32:00,
2013-03-15 00:42:00,29.0,25.0,-100.00,East,80,8.0,12.0,84,-99.99,,,-99.99,,2013-03-15 06:42:00,
2013-03-15 00:52:00,29.0,25.0,-100.00,East,80,8.0,12.0,84,-99.99,,,-99.99,,2013-03-15 06:52:00,
2013-03-15 01:02:00,29.0,25.0,-100.00,ESE,105,11.0,12.0,84,-99.99,,,-99.99,,2013-03-15 07:02:00,
2013-03-15 01:12:00,29.0,25.0,-100.00,ESE,105,11.0,12.0,84,-99.99,,,-99.99,,2013-03-15 07:12:00,
2013-03-15 01:22:00,28.0,24.0,-100.00,East,95,8.0,12.0,84,-99.99,,,-99.99,,2013-03-15 07:22:00,
2013-03-15 01:32:00,28.0,25.0,-100.00,East,90,9.0,11.0,85,-99.99,,,-99.99,,2013-03-15 07:32:00,
2013-03-15 01:42:00,28.0,24.0,-100.00,East,90,8.0,9.0,85,-99.99,,,-99.99,,2013-03-15 07:42:00,
2013-03-15 01:52:00,28.0,24.0,-100.00,East,90,8.0,9.0,85,-99.99,,,-99.99,,2013-03-15 07:52:00,
2013-03-15 02:02:00,28.0,24.0,-100.00,SE,125,14.0,20.0,84,-99.99,,,-99.99,,2013-03-15 08:02:00,
2013-03-15 02:12:00,28.0,24.0,-100.00,SE,125,14.0,20.0,84,-99.99,,,-99.99,,2013-03-15 08:12:00,
2013-03-15 02:23:00,28.0,24.0,-100.00,SE,125,14.0,18.0,84,-99.99,,,-99.99,,2013-03-15 08:23:00,
2013-03-15 02:33:00,27.0,23.0,-100.00,ESE,105,15.0,17.0,84,-99.99,,,-99.99,,2013-03-15 08:33:00,
2013-03-15 02:42:00,27.0,23.0,-100.00,ESE,110,15.0,19.0,84,-99.99,,,-99.99,,2013-03-15 08:42:00,
2013-03-15 02:52:00,27.0,23.0,-100.00,ESE,110,15.0,19.0,84,-99.99,,,-99.99,,2013-03-15 08:52:00,
2013-03-15 03:02:00,27.0,22.0,-100.00,East,95,13.0,16.0,84,-99.99,,,-99.99,,2013-03-15 09:02:00,
2013-03-15 03:12:00,27.0,22.0,-100.00,East,95,13.0,16.0,84,-99.99,,,-99.99,,2013-03-15 09:12:00,
2013-03-15 03:22:00,26.0,22.0,-100.00,East,95,12.0,17.0,84,-99.99,,,-99.99,,2013-03-15 09:22:00,
2013-03-15 03:33:00,26.0,22.0,-100.00,East,100,11.0,15.0,84,-99.99,,,-99.99,,2013-03-15 09:33:00,
2013-03-15 03:43:00,26.0,22.0,-100.00,East,100,13.0,16.0,84,-99.99,,,-99.99,,2013-03-15 09:43:00,
2013-03-15 03:52:00,26.0,22.0,-100.00,East,100,13.0,16.0,84,-99.99,,,-99.99,,2013-03-15 09:52:00,
2013-03-15 04:03:00,26.0,22.0,-100.00,East,100,14.0,16.0,84,-99.99,,,-99.99,,2013-03-15 10:03:00,
2013-03-15 04:12:00,26.0,22.0,-100.00,East,100,14.0,16.0,84,-99.99,,,-99.99,,2013-03-15 10:12:00,
2013-03-15 04:23:00,26.0,22.0,-100.00,East,90,14.0,17.0,84,-99.99,,,-99.99,,2013-03-15 10:23:00,
2013-03-15 04:33:00,26.0,22.0,-100.00,East,90,14.0,18.0,84,-99.99,,,-99.99,,2013-03-15 10:33:00,
2013-03-15 04:42:00,26.0,22.0,-100.00,East,90,16.0,20.0,84,-99.99,,,-99.99,,2013-03-15 10:42:00,
2013-03-15 04:52:00,26.0,22.0,-100.00,East,90,16.0,20.0,84,-99.99,,,-99.99,,2013-03-15 10:52:00,
2013-03-15 05:03:00,26.0,21.0,-100.00,East,90,14.0,18.0,83,-99.99,,,-99.99,,2013-03-15 11:03:00,
2013-03-15 05:12:00,26.0,21.0,-100.00,East,90,14.0,18.0,83,-99.99,,,-99.99,,2013-03-15 11:12:00,
2013-03-15 05:22:00,25.0,21.0,-100.00,ENE,75,13.0,19.0,83,-99.99,,,-99.99,,2013-03-15 11:22:00,
2013-03-15 05:32:00,24.0,20.0,-100.00,ENE,70,15.0,21.0,83,-99.99,,,-99.99,,2013-03-15 11:32:00,
2013-03-15 05:42:00,24.0,20.0,-100.00,ENE,70,17.0,19.0,82,-99.99,,,-99.99,,2013-03-15 11:42:00,
2013-03-15 05:52:00,24.0,20.0,-100.00,ENE,70,17.0,19.0,82,-99.99,,,-99.99,,2013-03-15 11:52:00,
2013-03-15 06:02:00,23.0,19.0,-100.00,East,80,16.0,19.0,82,-99.99,,,-99.99,,2013-03-15 12:02:00,
2013-03-15 06:12:00,23.0,19.0,-100.00,East,80,16.0,19.0,82,-99.99,,,-99.99,,2013-03-15 12:12:00,
2013-03-15 06:23:00,23.0,18.0,-100.00,East,85,16.0,20.0,82,-99.99,,,-99.99,,2013-03-15 12:23:00,
2013-03-15 06:32:00,23.0,18.0,-100.00,East,85,17.0,21.0,81,-99.99,,,-99.99,,2013-03-15 12:32:00,
2013-03-15 06:42:00,22.0,18.0,-100.00,East,95,17.0,21.0,81,-99.99,,,-99.99,,2013-03-15 12:42:00,
2013-03-15 06:52:00,22.0,18.0,-100.00,East,95,17.0,21.0,81,-99.99,,,-99.99,,2013-03-15 12:52:00,
2013-03-15 07:02:00,22.0,18.0,-100.00,East,95,15.0,19.0,81,-99.99,,,-99.99,,2013-03-15 13:02:00,
2013-03-15 07:12:00,22.0,18.0,-100.00,East,95,15.0,19.0,81,-99.99,,,-99.99,,2013-03-15 13:12:00,
2013-03-15 07:22:00,22.0,18.0,-100.00,ESE,105,14.0,20.0,81,-99.99,,,-99.99,,2013-03-15 13:22:00,
2013-03-15 07:32:00,22.0,18.0,-100.00,East,90,15.0,21.0,81,-99.99,,,-99.99,,2013-03-15 13:32:00,
2013-03-15 07:42:00,22.0,17.0,-100.00,East,100,18.0,21.0,81,-99.99,,,-99.99,,2013-03-15 13:42:00,
2013-03-15 07:52:00,22.0,17.0,-100.00,East,100,18.0,21.0,81,-99.99,,,-99.99,,2013-03-15 13:52:00,
2013-03-15 08:02:00,22.0,18.0,-100.00,ESE,110,13.0,20.0,81,-99.99,,,-99.99,,2013-03-15 14:02:00,
2013-03-15 08:12:00,22.0,18.0,-100.00,ESE,110,13.0,20.0,81,-99.99,,,-99.99,,2013-03-15 14:12:00,
2013-03-15 08:22:00,23.0,18.0,-100.00,ESE,105,12.0,17.0,81,-99.99,,,-99.99,,2013-03-15 14:22:00,
2013-03-15 08:32:00,22.0,18.0,-100.00,ESE,120,15.0,19.0,81,-99.99,,,-99.99,,2013-03-15 14:32:00,
2013-03-15 08:42:00,22.0,17.0,-100.00,SE,125,14.0,17.0,81,-99.99,,,-99.99,,2013-03-15 14:42:00,
2013-03-15 08:52:00,22.0,17.0,-100.00,SE,125,14.0,17.0,81,-99.99,,,-99.99,,2013-03-15 14:52:00,
2013-03-15 09:02:00,22.0,18.0,-100.00,ESE,115,11.0,14.0,81,-99.99,,,-99.99,,2013-03-15 15:02:00,
2013-03-15 09:13:00,22.0,18.0,-100.00,ESE,115,11.0,14.0,81,-99.99,,,-99.99,,2013-03-15 15:13:00,
2013-03-15 09:23:00,22.0,18.0,-100.00,ESE,115,8.0,13.0,81,-99.99,,,-99.99,,2013-03-15 15:23:00,
2013-03-15 09:33:00,23.0,18.0,-100.00,SE,130,7.0,9.0,81,-99.99,,,-99.99,,2013-03-15 15:33:00,
2013-03-15 09:42:00,23.0,18.0,-100.00,SE,135,6.0,9.0,81,-99.99,,,-99.99,,2013-03-15 15:42:00,
2013-03-15 09:52:00,23.0,18.0,-100.00,SE,135,6.0,9.0,81,-99.99,,,-99.99,,2013-03-15 15:52:00,
2013-03-15 10:03:00,23.0,18.0,-100.00,SE,130,7.0,9.0,81,-99.99,,,-99.99,,2013-03-15 16:03:00,
2013-03-15 10:12:00,23.0,18.0,-100.00,SE,130,7.0,9.0,81,-99.99,,,-99.99,,2013-03-15 16:12:00,
2013-03-15 10:22:00,23.0,18.0,-100.00,SE,125,7.0,9.0,81,-99.99,,,-99.99,,2013-03-15 16:22:00,
2013-03-15 10:32:00,24.0,19.0,-100.00,SE,130,9.0,12.0,81,-99.99,,,-99.99,,2013-03-15 16:32:00,
2013-03-15 10:42:00,24.0,19.0,-100.00,SE,125,8.0,11.0,81,-99.99,,,-99.99,,2013-03-15 16:42:00,
2013-03-15 10:52:00,24.0,19.0,-100.00,SE,125,8.0,11.0,81,-99.99,,,-99.99,,2013-03-15 16:52:00,
2013-03-15 11:02:00,24.0,20.0,-100.00,SE,140,12.0,14.0,81,-99.99,,,-99.99,,2013-03-15 17:02:00,
2013-03-15 11:12:00,24.0,20.0,-100.00,SE,140,12.0,14.0,81,-99.99,,,-99.99,,2013-03-15 17:12:00,
2013-03-15 11:22:00,25.0,20.0,-100.00,SE,135,9.0,12.0,81,-99.99,,,-99.99,,2013-03-15 17:22:00,
2013-03-15 11:32:00,25.0,20.0,-100.00,SE,140,5.0,9.0,81,-99.99,,,-99.99,,2013-03-15 17:32:00,
2013-03-15 11:42:00,25.0,20.0,-100.00,SE,125,6.0,7.0,81,-99.99,,,-99.99,,2013-03-15 17:42:00,
2013-03-15 11:52:00,25.0,20.0,-100.00,SE,125,6.0,7.0,81,-99.99,,,-99.99,,2013-03-15 17:52:00,
2013-03-15 12:02:00,26.0,21.0,-100.00,ESE,120,6.0,7.0,81,-99.99,,,-99.99,,2013-03-15 18:02:00,
2013-03-15 12:12:00,26.0,21.0,-100.00,ESE,120,6.0,7.0,81,-99.99,,,-99.99,,2013-03-15 18:12:00,
2013-03-15 12:22:00,26.0,21.0,-100.00,ESE,120,6.0,7.0,81,-99.99,,,-99.99,,2013-03-15 18:22:00,
2013-03-15 12:32:00,26.0,21.0,-100.00,East,100,6.0,8.0,82,-99.99,,,-99.99,,2013-03-15 18:32:00,
2013-03-15 12:42:00,26.0,21.0,-100.00,ESE,115,7.0,10.0,82,-99.99,,,-99.99,,2013-03-15 18:42:00,
2013-03-15 12:52:00,26.0,21.0,-100.00,ESE,115,7.0,10.0,82,-99.99,,,-99.99,,2013-03-15 18:52:00,
2013-03-15 13:02:00,26.0,21.0,-100.00,ESE,120,9.0,9.0,82,-99.99,,,-99.99,,2013-03-15 19:02:00,
2013-03-15 13:12:00,26.0,21.0,-100.00,ESE,120,9.0,9.0,82,-99.99,,,-99.99,,2013-03-15 19:12:00,
2013-03-15 13:22:00,26.0,22.0,-100.00,SE,135,7.0,9.0,82,-99.99,,,-99.99,,2013-03-15 19:22:00,
2013-03-15 13:32:00,27.0,22.0,-100.00,SE,130,7.0,9.0,82,-99.99,,,-99.99,,2013-03-15 19:32:00,
2013-03-15 13:42:00,27.0,23.0,-100.00,SE,135,6.0,9.0,82,-99.99,,,-99.99,,2013-03-15 19:42:00,
2013-03-15 13:52:00,27.0,23.0,-100.00,SE,135,6.0,9.0,82,-99.99,,,-99.99,,2013-03-15 19:52:00,
2013-03-15 14:02:00,28.0,24.0,-100.00,SE,140,6.0,9.0,82,-99.99,,,-99.99,,2013-03-15 20:02:00,
2013-03-15 14:12:00,28.0,24.0,-100.00,SE,140,6.0,9.0,82,-99.99,,,-99.99,,2013-03-15 20:12:00,
2013-03-15 14:22:00,28.0,24.0,-100.00,SE,130,5.0,7.0,82,-99.99,,,-99.99,,2013-03-15 20:22:00,
2013-03-15 14:32:00,29.0,25.0,-100.00,ESE,110,4.0,6.0,83,-99.99,,,-99.99,,2013-03-15 20:32:00,
2013-03-15 14:42:00,29.0,25.0,-100.00,ESE,115,3.0,5.0,83,-99.99,,,-99.99,,2013-03-15 20:42:00,
2013-03-15 14:52:00,29.0,25.0,-100.00,ESE,115,3.0,5.0,83,-99.99,,,-99.99,,2013-03-15 20:52:00,
2013-03-15 15:02:00,30.0,26.0,-100.00,ENE,60,3.0,6.0,83,-99.99,,,-99.99,,2013-03-15 21:02:00,
2013-03-15 15:12:00,30.0,26.0,-100.00,ENE,60,3.0,6.0,83,-99.99,,,-99.99,,2013-03-15 21:12:00,
2013-03-15 15:22:00,31.0,26.0,-100.00,East,90,3.0,6.0,83,-99.99,,,-99.99,,2013-03-15 21:22:00,
2013-03-15 15:33:00,31.0,26.0,-100.00,ENE,65,6.0,8.0,83,-99.99,,,-99.99,,2013-03-15 21:33:00,
2013-03-15 15:43:00,30.0,26.0,-100.00,NNE,30,6.0,8.0,83,-99.99,,,-99.99,,2013-03-15 21:43:00,
2013-03-15 15:52:00,30.0,26.0,-100.00,NNE,30,6.0,8.0,83,-99.99,,,-99.99,,2013-03-15 21:52:00,
2013-03-15 16:03:00,30.0,25.0,-100.00,NNE,30,10.0,12.0,80,-99.99,,,-99.99,,2013-03-15 22:03:00,
2013-03-15 16:13:00,30.0,25.0,-100.00,NNE,30,10.0,12.0,80,-99.99,,,-99.99,,2013-03-15 22:13:00,
2013-03-15 16:22:00,29.0,24.0,-100.00,NNE,30,8.0,11.0,79,-99.99,,,-99.99,,2013-03-15 22:22:00,
2013-03-15 16:32:00,29.0,22.0,-100.00,North,10,9.0,12.0,77,-99.99,,,-99.99,,2013-03-15 22:32:00,
2013-03-15 16:42:00,28.0,22.0,-100.00,North,10,11.0,13.0,76,-99.99,,,-99.99,,2013-03-15 22:42:00,
2013-03-15 16:52:00,28.0,22.0,-100.00,North,10,11.0,13.0,76,-99.99,,,-99.99,,2013-03-15 22:52:00,
2013-03-15 17:02:00,28.0,21.0,-100.00,North,10,10.0,14.0,76,-99.99,,,-99.99,,2013-03-15 23:02:00,
2013-03-15 17:12:00,28.0,21.0,-100.00,North,10,10.0,14.0,76,-99.99,,,-99.99,,2013-03-15 23:12:00,
2013-03-15 17:22:00,27.0,22.0,-100.00,North,0,11.0,14.0,78,-99.99,,,-99.99,,2013-03-15 23:22:00,
2013-03-15 17:32:00,27.0,22.0,-100.00,North,355,11.0,12.0,81,-99.99,,,-99.99,,2013-03-15 23:32:00,
2013-03-15 17:42:00,26.0,22.0,-100.00,North,0,9.0,11.0,81,-99.99,,,-99.99,,2013-03-15 23:42:00,
2013-03-15 17:52:00,26.0,22.0,-100.00,North,0,9.0,11.0,81,-99.99,,,-99.99,,2013-03-15 23:52:00,
2013-03-15 18:02:00,26.0,21.0,-100.00,North,0,9.0,12.0,81,-99.99,,,-99.99,,2013-03-16 00:02:00,
2013-03-15 18:12:00,26.0,21.0,-100.00,North,0,9.0,12.0,81,-99.99,,,-99.99,,2013-03-16 00:12:00,
2013-03-15 18:22:00,27.0,22.0,-100.00,NNW,345,11.0,14.0,81,-99.99,,,-99.99,,2013-03-16 00:22:00,
2013-03-15 18:32:00,27.0,21.0,-100.00,NW,320,19.0,26.0,75,-99.99,,,-99.99,,2013-03-16 00:32:00,
2013-03-15 18:42:00,27.0,19.0,-100.00,NW,315,21.0,27.0,72,-99.99,,,-99.99,,2013-03-16 00:42:00,
2013-03-15 18:52:00,27.0,19.0,-100.00,NW,315,21.0,27.0,72,-99.99,,,-99.99,,2013-03-16 00:52:00,
2013-03-15 19:02:00,27.0,18.0,-100.00,NW,325,22.0,28.0,68,-99.99,,,-99.99,,2013-03-16 01:02:00,
2013-03-15 19:12:00,27.0,18.0,-100.00,NW,325,22.0,28.0,68,-99.99,,,-99.99,,2013-03-16 01:12:00,
2013-03-15 19:21:00,26.0,17.0,-100.00,NW,320,19.0,27.0,67,-99.99,,,-99.99,,2013-03-16 01:21:00,
2013-03-15 19:32:00,26.0,16.0,-100.00,NNW,335,18.0,23.0,66,-99.99,,,-99.99,,2013-03-16 01:32:00,
2013-03-15 19:42:00,25.0,16.0,-100.00,NNW,330,19.0,23.0,66,-99.99,,,-99.99,,2013-03-16 01:42:00,
2013-03-15 19:52:00,25.0,16.0,-100.00,NNW,330,19.0,23.0,66,-99.99,,,-99.99,,2013-03-16 01:52:00,
2013-03-15 20:02:00,25.0,15.0,-100.00,NW,325,16.0,27.0,65,-99.99,,,-99.99,,2013-03-16 02:02:00,
2013-03-15 20:12:00,25.0,15.0,-100.00,NW,325,16.0,27.0,65,-99.99,,,-99.99,,2013-03-16 02:12:00,
2013-03-15 20:23:00,25.0,15.0,-100.00,NW,325,18.0,23.0,65,-99.99,,,-99.99,,2013-03-16 02:23:00,
2013-03-15 20:32:00,25.0,15.0,-100.00,NW,320,13.0,21.0,65,-99.99,,,-99.99,,2013-03-16 02:32:00,
2013-03-15 20:42:00,24.0,14.0,-100.00,NNW,330,20.0,23.0,63,-99.99,,,-99.99,,2013-03-16 02:42:00,
2013-03-15 20:52:00,24.0,14.0,-100.00,NNW,330,20.0,23.0,63,-99.99,,,-99.99,,2013-03-16 02:52:00,
2013-03-15 21:02:00,24.0,14.0,-100.00,NNW,340,17.0,24.0,65,-99.99,,,-99.99,,2013-03-16 03:02:00,
2013-03-15 21:12:00,24.0,14.0,-100.00,NNW,340,17.0,24.0,65,-99.99,,,-99.99,,2013-03-16 03:12:00,
2013-03-15 21:22:00,23.0,13.0,-100.00,NNW,335,17.0,21.0,65,-99.99,,,-99.99,,2013-03-16 03:22:00,
2013-03-15 21:32:00,22.0,13.0,-100.00,NNW,340,17.0,21.0,65,-99.99,,,-99.99,,2013-03-16 03:32:00,
2013-03-15 21:43:00,22.0,12.0,-100.00,NNW,340,16.0,24.0,65,-99.99,,,-99.99,,2013-03-16 03:43:00,
2013-03-15 21:52:00,22.0,12.0,-100.00,NNW,340,16.0,24.0,65,-99.99,,,-99.99,,2013-03-16 03:52:00,
2013-03-15 22:02:00,22.0,12.0,-100.00,NNW,330,14.0,20.0,65,-99.99,,,-99.99,,2013-03-16 04:02:00,
2013-03-15 22:13:00,22.0,12.0,-100.00,NNW,330,14.0,20.0,65,-99.99,,,-99.99,,2013-03-16 04:13:00,
2013-03-15 22:23:00,21.0,12.0,-100.00,North,355,15.0,18.0,67,-99.99,,,-99.99,,2013-03-16 04:23:00,
2013-03-15 22:33:00,20.0,11.0,-100.00,North,355,13.0,18.0,66,-99.99,,,-99.99,,2013-03-16 04:33:00,
2013-03-15 22:43:00,20.0,11.0,-100.00,North,355,11.0,17.0,67,-99.99,,,-99.99,,2013-03-16 04:43:00,
2013-03-15 22:52:00,20.0,11.0,-100.00,North,355,11.0,17.0,67,-99.99,,,-99.99,,2013-03-16 04:52:00,
2013-03-15 23:02:00,19.0,11.0,-100.00,North,0,13.0,16.0,67,-99.99,,,-99.99,,2013-03-16 05:02:00,
2013-03-15 23:12:00,19.0,11.0,-100.00,North,0,13.0,16.0,67,-99.99,,,-99.99,,2013-03-16 05:12:00,
2013-03-15 23:22:00,19.0,10.0,-100.00,North,5,12.0,17.0,67,-99.99,,,-99.99,,2013-03-16 05:22:00,
2013-03-15 23:32:00,19.0,10.0,-100.00,NNW,340,10.0,15.0,67,-99.99,,,-99.99,,2013-03-16 05:32:00,
2013-03-15 23:42:00,18.0,9.0,-100.00,North,0,10.0,12.0,67,-99.99,,,-99.99,,2013-03-16 05:42:00,
2013-03-15 23:52:00,18.0,9.0,-100.00,North,0,10.0,12.0,67,-99.99,,,-99.99,,2013-03-16 05:52:00,